Погода в Челнаво-Рождественском

Россия / Тамбовская область     52°57′18″N   41°11′24″E
темп.,
°C
ветер,
м/с
пор.,
м/с
влажн.,
%
обл.,
%
осадки,
мм/ч
давл.,
гПа
погр.,
м
4 декабря, сб
сб400:00+6ю101888100 0.1 1004766
03:00+6ююз101891100 1.4 10021235
06:00+1зсз51097100 3.1 1006518
09:00+1з5986100 3.2 1009603
12:000зюз5107572 0.0 1010716
15:000з598159 0.0 1012703
18:00−2з6873100 0.0 1014887
21:00−2зюз37784 0.0 1015257
5 декабря, вс
вс500:00−3зюз36835 0.0 1016222
03:00−3з24845 0.0 1016133
06:00−3зюз22865 0.0 101758
09:00−3юз2484100 0.0 1018139
12:00−1ююз2271100 0.0 1018283
15:00−1ю2274100 0.0 101832
18:00−2ююв2276100 0.0 101935
21:00−3юв3477100 0.0 101996
6 декабря, пн
пн600:00−3юв2474100 0.0 1020108
03:00−2вюв2573100 0.0 1020149
06:00−2вюв3673100 0.0 1020181
09:00−2вюв3872100 0.0 1021283
12:00−1вюв4863100 0.0 1020442
15:00−1вюв476374 0.0 1020379
18:00−2вюв4883100 0.0 1022358
21:00−3вюв499291 0.1 1021345
7 декабря, вт
вт700:00−2вюв4991100 0.1 1021386
03:00−1юв51092100 0.1 1020404
06:00−1юв51297100 1.1 1018422
09:000юв71697100 4.1 1017481
12:00+2ююв71698100 0.4 1016496
15:00+3ююв6149899 2.3 1015402
18:00+3ю61496100 0.1 1015328
21:00+3ююв61493100 2.1 1015261
8 декабря, ср
ср800:00+3ююв71790100 0.0 1014359
03:00+3ю61689100 0.0 1015390
06:00+3ююв61589100 0.0 1015368
09:00+3ююв51588100 0.0 1015361
12:00+3ююв51286100 0.0 1015378
15:00+3юв41087100 0.0 1014289
18:00+1юв41090100 0.0 1015220
21:00+1вюв3792100 0.0 1015157